Regional Weather Roundup
Issued by NWS

Home | Current Version | Previous Version | Graphics & Text | Print | Product List | Glossary On
Versions: 1 2 3 4 5 6 7 8 9 10 11 12 13 14 15 16 17 18 19 20 21 22 23 24 25 26 27 28 29 30 31 32 33 34 35 36 37 38 39 40 41 42 43 44 45 46 47 48 49 50
005
ASUS44 KJAN 170003
RWRMS

MISSISSIPPI HOURLY WEATHER ROUNDUP
NATIONAL WEATHER SERVICE JACKSON MS
700 PM CDT WED APR 16 2014

NOTE: "FAIR: INDICATES FEW OR NO CLOUDS BELOW 12,000 FEET WITH NO
SIGNIFICANT WEATHER AND/OR OBSTRUCTIONS TO VISIBILITY.

MSZ001>002-007>008-010>013-018>021-025>028-034>036-170100-
NORTHWEST MISSISSIPPI

CITY           SKY/WX    TMP DP  RH WIND       PRES   REMARKS
CLARKSDALE       N/A     57  36  44 S7        30.12F
CLEVELAND      FAIR      57  39  50 S6        30.11F
GREENWOOD      PTCLDY    59  39  47 CALM      30.12S
6HR MIN TEMP:  58; 6HR MAX TEMP:  66;

GREENVILLE     MOCLDY    59  38  45 SE6       30.11F
6HR MIN TEMP:  54; 6HR MAX TEMP:  60;

GRENADA        FAIR      55  43  62 CALM      30.12S
OLIVE BRANCH   MOCLDY    57  28  33 S6        30.11S
OXFORD         FAIR      57  27  30 CALM      30.13F
TUNICA         MOCLDY    57  34  41 S6        30.12S
$$

MSZ003>006-009-014>017-022>024-029>033-037>039-170100-
NORTHEAST MISSISSIPPI

CITY           SKY/WX    TMP DP  RH WIND       PRES   REMARKS
BELMONT        FAIR      61  30  30 S6        30.14R
COLUMBUS AFB   NOT AVBL
CORINTH        FAIR      59  28  31 S5        30.13R
GOLDN TRIANGLE CLEAR     61  36  39 SW7       30.17R
STARKVILLE     FAIR      59  36  41 E5        30.14R
TUPELO         CLEAR     59  33  37 SW6       30.13S
6HR MIN TEMP:  56; 6HR MAX TEMP:  64;

$$

MSZ040-058-170100-
CENTRAL MISSISSIPPI

CITY           SKY/WX    TMP DP  RH WIND       PRES   REMARKS
JACKSON INTL   MOCLDY    62  33  33 E5        30.12S
6HR MIN TEMP:  58; 6HR MAX TEMP:  66;

JACKSON HAWKNS PTCLDY    62  33  33 CALM      30.12S
6HR MIN TEMP:  58; 6HR MAX TEMP:  66;

MERIDIAN KEY   CLEAR     62  33  33 E5        30.13R
6HR MIN TEMP:  58; 6HR MAX TEMP:  67;

MERIDIAN NAS   CLEAR     59  37  44 E6        30.14R
6HR MIN TEMP:  57; 6HR MAX TEMP:  66;

RAYMOND        FAIR      61  57  88 SE6       30.12S
VICKSBURG      PTCLDY    63  35  35 CALM      30.11F
6HR MIN TEMP:  54; 6HR MAX TEMP:  65;

$$

MSZ059>079-170100-
SOUTH MISSISSIPPI

CITY           SKY/WX    TMP DP  RH WIND       PRES   REMARKS
BROOKHAVEN     FAIR      63  39  42 CALM      30.13R
COLUMBIA       FAIR      59  41  51 MISG      30.11S
HATTIESBURG    CLEAR     65  35  33 NE3       30.12F
6HR MIN TEMP:  58; 6HR MAX TEMP:  68;

MCCOMB         PTCLDY    62  36  37 CALM      30.11S
6HR MIN TEMP:  57; 6HR MAX TEMP:  65;

NATCHEZ        MOCLDY    63  36  36 SE5       30.10S
6HR MIN TEMP:  57; 6HR MAX TEMP:  64;

PINE BELT      CLEAR     63  30  29 CALM      30.13S
6HR MIN TEMP:  57; 6HR MAX TEMP:  64;

$$

MSZ080>082-170100-
COASTAL MISSISSIPPI

CITY           SKY/WX    TMP DP  RH WIND       PRES   REMARKS
BAY ST LOUIS   CLEAR     57  43  58 SE8       30.14S
BILOXI         PTCLDY    56  43  61 SE7       30.14F
6HR MIN TEMP:  56; 6HR MAX TEMP:  59;

PASCAGOULA     PTCLDY    57  45  64 SE8       30.15S
6HR MIN TEMP:  57; 6HR MAX TEMP:  64;

GULFPORT       PTCLDY    59  44  57 SE8       30.14S
6HR MIN TEMP:  58; 6HR MAX TEMP:  62;

$$



USA.gov is the U.S. government's official web portal to all federal, state and local government web resources and services.